TimeCST,TemperatureF,Dew PointF,Humidity,Sea Level PressureIn,VisibilityMPH,Wind Direction,Wind SpeedMPH,Gust SpeedMPH,PrecipitationIn,Events,Conditions,WindDirDegrees,DateUTC
12:15 AM,42.8,41.0,93,29.83,8.0,NNE,4.6,-,0.01,,Overcast,20,2013-12-21 06:15:00
12:35 AM,42.8,41.0,93,29.83,5.0,North,4.6,-,0.02,,Overcast,10,2013-12-21 06:35:00
12:55 AM,42.8,39.2,87,29.82,10.0,North,4.6,-,0.03,,Overcast,360,2013-12-21 06:55:00
1:15 AM,42.8,39.2,87,29.82,7.0,NNE,5.8,-,N/A,,Overcast,20,2013-12-21 07:15:00
1:35 AM,42.8,39.2,87,29.81,7.0,North,4.6,-,N/A,,Overcast,360,2013-12-21 07:35:00
1:55 AM,41.0,39.2,93,29.81,7.0,North,3.5,-,N/A,,Overcast,360,2013-12-21 07:55:00
2:15 AM,41.0,39.2,93,29.80,8.0,North,6.9,-,N/A,,Overcast,10,2013-12-21 08:15:00
2:35 AM,41.0,39.2,93,29.81,10.0,North,4.6,-,0.01,,Overcast,350,2013-12-21 08:35:00
2:55 AM,41.0,39.2,93,29.79,7.0,North,5.8,-,0.04,,Overcast,10,2013-12-21 08:55:00
3:15 AM,39.2,39.2,100,29.78,6.0,North,3.5,-,0.05,,Overcast,10,2013-12-21 09:15:00
3:35 AM,39.2,37.4,93,29.80,5.0,Calm,Calm,-,0.12,,Overcast,0,2013-12-21 09:35:00
3:55 AM,39.2,37.4,93,29.80,5.0,Calm,Calm,-,0.22,,Overcast,0,2013-12-21 09:55:00
4:15 AM,39.2,37.4,93,29.78,5.0,NNE,4.6,-,0.09,,Overcast,20,2013-12-21 10:15:00
4:35 AM,39.2,37.4,93,29.75,7.0,NNE,8.1,-,0.13,,Overcast,30,2013-12-21 10:35:00
4:55 AM,39.2,37.4,93,29.75,10.0,North,5.8,-,0.14,,Overcast,10,2013-12-21 10:55:00
5:15 AM,37.4,37.4,100,29.77,5.0,NNE,9.2,-,0.12,,Overcast,20,2013-12-21 11:15:00
5:35 AM,37.4,35.6,93,29.77,9.0,North,4.6,-,0.20,,Mostly Cloudy,360,2013-12-21 11:35:00
5:55 AM,37.4,35.6,93,29.78,5.0,NNE,4.6,-,0.32,,Overcast,20,2013-12-21 11:55:00
6:15 AM,37.4,35.6,93,29.76,5.0,NNE,8.1,-,0.12,,Overcast,20,2013-12-21 12:15:00
6:35 AM,37.4,35.6,93,29.76,5.0,North,9.2,-,0.24,,Overcast,360,2013-12-21 12:35:00
6:55 AM,37.4,35.6,93,29.76,5.0,NNE,6.9,-,0.34,,Overcast,20,2013-12-21 12:55:00
7:15 AM,37.4,35.6,93,29.76,3.0,NNE,6.9,-,0.12,,Overcast,30,2013-12-21 13:15:00
7:35 AM,37.4,35.6,93,29.75,5.0,NNE,6.9,-,0.17,,Overcast,30,2013-12-21 13:35:00
7:55 AM,37.4,35.6,93,29.75,5.0,NE,8.1,-,0.21,,Overcast,40,2013-12-21 13:55:00
8:15 AM,37.4,35.6,93,29.76,6.0,North,3.5,-,0.03,,Overcast,10,2013-12-21 14:15:00
8:35 AM,37.4,35.6,93,29.76,5.0,North,4.6,-,0.06,,Overcast,350,2013-12-21 14:35:00
8:55 AM,37.4,35.6,93,29.75,5.0,North,5.8,-,0.09,,Overcast,10,2013-12-21 14:55:00
9:15 AM,37.4,35.6,93,29.77,7.0,Calm,Calm,-,0.02,,Overcast,0,2013-12-21 15:15:00
9:35 AM,37.4,35.6,93,29.78,4.0,North,3.5,-,0.08,,Overcast,350,2013-12-21 15:35:00
9:55 AM,37.4,35.6,93,29.79,4.0,NNW,3.5,-,0.14,,Overcast,340,2013-12-21 15:55:00
10:15 AM,37.4,35.6,93,29.80,5.0,NW,5.8,-,0.06,,Overcast,310,2013-12-21 16:15:00
10:35 AM,37.4,35.6,93,29.79,5.0,NNW,5.8,-,0.10,,Overcast,340,2013-12-21 16:35:00
10:55 AM,37.4,35.6,93,29.78,7.0,North,5.8,-,0.13,,Overcast,10,2013-12-21 16:55:00
11:15 AM,37.4,35.6,93,29.75,9.0,NNE,6.9,-,0.02,,Overcast,30,2013-12-21 17:15:00
11:35 AM,37.4,35.6,93,29.75,5.0,NNE,5.8,-,0.06,,Overcast,30,2013-12-21 17:35:00
11:55 AM,37.4,35.6,93,29.73,7.0,North,3.5,-,0.09,,Overcast,10,2013-12-21 17:55:00
12:15 PM,37.4,35.6,93,29.72,5.0,NNE,5.8,-,0.04,,Overcast,20,2013-12-21 18:15:00
12:35 PM,37.4,35.6,93,29.69,6.0,NE,9.2,-,0.07,,Overcast,50,2013-12-21 18:35:00
12:55 PM,37.4,35.6,93,29.66,10.0,NE,5.8,-,0.09,,Overcast,40,2013-12-21 18:55:00
1:15 PM,37.4,35.6,93,29.64,5.0,NE,8.1,-,0.04,,Overcast,50,2013-12-21 19:15:00
1:35 PM,37.4,35.6,93,29.64,10.0,NE,6.9,-,0.05,,Overcast,50,2013-12-21 19:35:00
1:55 PM,37.4,35.6,93,29.63,10.0,North,5.8,-,0.09,,Overcast,10,2013-12-21 19:55:00
2:15 PM,37.4,35.6,93,29.61,10.0,NNE,6.9,-,0.03,,Overcast,20,2013-12-21 20:15:00
2:35 PM,37.4,35.6,93,29.61,9.0,NNE,3.5,-,0.06,,Overcast,30,2013-12-21 20:35:00
2:55 PM,37.4,35.6,93,29.61,10.0,NNE,5.8,-,0.08,,Overcast,20,2013-12-21 20:55:00
3:15 PM,37.4,35.6,93,29.59,10.0,NNE,6.9,-,0.03,,Overcast,20,2013-12-21 21:15:00
3:35 PM,37.4,35.6,93,29.58,10.0,NNE,10.4,-,0.05,,Overcast,30,2013-12-21 21:35:00
3:55 PM,37.4,35.6,93,29.58,8.0,North,5.8,-,0.11,,Overcast,10,2013-12-21 21:55:00
4:15 PM,37.4,35.6,93,29.58,5.0,North,5.8,-,0.09,,Overcast,10,2013-12-21 22:15:00
4:35 PM,37.4,35.6,93,29.60,5.0,North,4.6,-,0.16,,Overcast,350,2013-12-21 22:35:00
4:55 PM,37.4,37.4,100,29.59,8.0,North,4.6,-,0.20,,Overcast,350,2013-12-21 22:55:00
5:15 PM,37.4,35.6,93,29.59,10.0,North,6.9,-,0.02,,Overcast,350,2013-12-21 23:15:00
5:35 PM,37.4,35.6,93,29.60,10.0,NNW,8.1,-,0.03,,Overcast,340,2013-12-21 23:35:00
5:55 PM,35.6,33.8,93,29.55,10.0,NNE,10.4,18.4,0.04,,Overcast,20,2013-12-21 23:55:00
6:15 PM,35.6,33.8,93,29.57,9.0,NNE,9.2,16.1,0.04,,Overcast,20,2013-12-22 00:15:00
6:35 PM,35.6,35.6,100,29.57,10.0,North,6.9,-,0.08,,Overcast,10,2013-12-22 00:35:00
6:55 PM,35.6,33.8,93,29.57,10.0,North,8.1,-,0.12,,Overcast,10,2013-12-22 00:55:00
7:15 PM,37.4,35.6,93,29.55,10.0,North,5.8,-,0.03,,Overcast,10,2013-12-22 01:15:00
7:35 PM,37.4,35.6,93,29.57,10.0,NW,3.5,-,0.04,,Overcast,310,2013-12-22 01:35:00
7:55 PM,37.4,35.6,93,29.59,2.5,Calm,Calm,-,0.05,,Overcast,0,2013-12-22 01:55:00
8:15 PM,37.4,35.6,93,29.48,5.0,ENE,12.7,-,0.01,,Overcast,60,2013-12-22 02:15:00
8:35 PM,35.6,35.6,100,29.51,9.0,Calm,Calm,-,0.01,,Overcast,0,2013-12-22 02:35:00
8:55 PM,37.4,35.6,93,29.58,10.0,West,6.9,-,0.01,,Overcast,270,2013-12-22 02:55:00
9:15 PM,37.4,35.6,93,29.54,1.5,NW,3.5,-,N/A,,Overcast,310,2013-12-22 03:15:00
9:35 PM,37.4,35.6,93,29.58,2.5,West,5.8,-,N/A,,Overcast,260,2013-12-22 03:35:00
9:55 PM,35.6,35.6,100,29.55,3.0,NW,3.5,-,N/A,,Overcast,320,2013-12-22 03:55:00
10:15 PM,35.6,35.6,100,29.53,5.0,Calm,Calm,-,N/A,,Overcast,0,2013-12-22 04:15:00
10:35 PM,35.6,35.6,100,29.54,10.0,Calm,Calm,-,N/A,,Overcast,0,2013-12-22 04:35:00
10:55 PM,37.4,35.6,93,29.58,10.0,WSW,5.8,-,N/A,,Overcast,240,2013-12-22 04:55:00
11:15 PM,37.4,35.6,93,29.60,10.0,West,5.8,-,N/A,,Overcast,260,2013-12-22 05:15:00
11:35 PM,37.4,35.6,93,29.63,10.0,WSW,8.1,-,N/A,,Overcast,250,2013-12-22 05:35:00
11:55 PM,35.6,35.6,100,29.64,10.0,West,6.9,-,N/A,,Overcast,260,2013-12-22 05:55:00